• In Hungary
  • List of Countries
  • For 7 days
  • Water Temperature
  • Satellite Maps
  • Weather Map
  • News
  • Weather Widgets
  • user-avatar
    Login

    Hourly Weather Malaya Znamenka

    Today, 28 May, Monday

    Time Temperature Precipitation Wind Pressure Humidity
    00:00 +12°C° 0 mm 3 mps 754 mmHg 80%
    01:00 +11°C° 0 mm 3 mps 754 mmHg 81%
    02:00 +11°C° 0 mm 3 mps 754 mmHg 81%
    03:00 +11°C° 0 mm 3 mps 754 mmHg 82%
    04:00 +11°C° 0 mm 3 mps 754 mmHg 83%
    05:00 +12°C° 0 mm 3 mps 754 mmHg 83%
    06:00 +13°C° 0 mm 3 mps 754 mmHg 84%
    07:00 +14°C° 0 mm 4 mps 754 mmHg 78%
    08:00 +17°C° 0 mm 4 mps 755 mmHg 72%
    09:00 +18°C° 0 mm 4 mps 755 mmHg 66%
    10:00 +19°C° 0 mm 5 mps 755 mmHg 60%
    11:00 +19°C° 0 mm 5 mps 756 mmHg 54%
    12:00 +20°C° 0 mm 5 mps 756 mmHg 49%
    13:00 +20°C° 0 mm 5 mps 756 mmHg 49%
    14:00 +20°C° 0 mm 5 mps 756 mmHg 49%
    15:00 +20°C° 0 mm 6 mps 757 mmHg 48%
    16:00 +19°C° 0 mm 5 mps 757 mmHg 52%
    17:00 +17°C° 0 mm 5 mps 757 mmHg 55%
    18:00 +18°C° 0 mm 4 mps 757 mmHg 58%
    19:00 +15°C° 0 mm 4 mps 757 mmHg 61%
    20:00 +13°C° 0 mm 3 mps 758 mmHg 64%
    21:00 +11°C° 0 mm 3 mps 758 mmHg 67%
    22:00 +10°C° 0 mm 3 mps 759 mmHg 67%
    23:00 +9°C° 0 mm 3 mps 759 mmHg 67%

    Tomorrow, 29 May, Tuesday

    Time Temperature Precipitation Wind Pressure Humidity
    00:00 +8°C° 0 mm 3 mps 760 mmHg 67%
    01:00 +8°C° 0 mm 2 mps 760 mmHg 68%
    02:00 +7°C° 0 mm 2 mps 760 mmHg 69%
    03:00 +7°C° 0 mm 2 mps 760 mmHg 70%
    04:00 +7°C° 0 mm 2 mps 760 mmHg 70%
    05:00 +9°C° 0 mm 1 mps 761 mmHg 69%
    06:00 +10°C° 0 mm 1 mps 761 mmHg 69%
    07:00 +12°C° 0 mm 1 mps 761 mmHg 62%
    08:00 +13°C° 0 mm 1 mps 761 mmHg 56%
    09:00 +15°C° 0 mm 1 mps 761 mmHg 50%
    10:00 +16°C° 0 mm 1 mps 760 mmHg 48%
    11:00 +17°C° 0 mm 2 mps 760 mmHg 46%
    12:00 +18°C° 0 mm 2 mps 760 mmHg 44%
    13:00 +18°C° 0 mm 2 mps 759 mmHg 44%
    14:00 +19°C° 0 mm 2 mps 759 mmHg 44%
    15:00 +19°C° 0 mm 2 mps 758 mmHg 45%
    16:00 +19°C° 0 mm 2 mps 758 mmHg 49%
    17:00 +19°C° 0 mm 2 mps 757 mmHg 52%
    18:00 +19°C° 0 mm 2 mps 756 mmHg 56%
    19:00 +17°C° 0 mm 2 mps 756 mmHg 60%
    20:00 +15°C° 0 mm 2 mps 756 mmHg 64%
    21:00 +14°C° 0 mm 2 mps 755 mmHg 68%
    22:00 +13°C° 0 mm 2 mps 755 mmHg 70%
    23:00 +11°C° 0 mm 3 mps 755 mmHg 71%

    Day after tomorrow, 30 May, Wednesday

    Time Temperature Precipitation Wind Pressure Humidity
    00:00 +11°C° 0 mm 3 mps 755 mmHg 73%
    01:00 +11°C° 0 mm 3 mps 754 mmHg 74%
    02:00 +10°C° 0 mm 3 mps 754 mmHg 76%
    03:00 +10°C° 0 mm 3 mps 754 mmHg 77%
    04:00 +11°C° 0 mm 4 mps 753 mmHg 77%
    05:00 +11°C° 0 mm 4 mps 753 mmHg 78%
    06:00 +12°C° 0 mm 5 mps 752 mmHg 78%
    07:00 +14°C° 0 mm 5 mps 752 mmHg 75%
    08:00 +16°C° 0 mm 5 mps 751 mmHg 71%
    09:00 +19°C° 0 mm 6 mps 751 mmHg 68%
    10:00 +20°C° 0 mm 6 mps 750 mmHg 66%
    11:00 +21°C° 0 mm 6 mps 750 mmHg 63%
    12:00 +23°C° 0 mm 7 mps 749 mmHg 61%
    13:00 +23°C° 0 mm 7 mps 749 mmHg 61%
    14:00 +23°C° 0 mm 7 mps 748 mmHg 61%
    15:00 +24°C° 0 mm 7 mps 748 mmHg 62%
    16:00 +23°C° 0.1 mm 7 mps 747 mmHg 65%
    17:00 +23°C° 0.1 mm 6 mps 747 mmHg 69%
    18:00 +22°C° 0.1 mm 6 mps 746 mmHg 72%
    19:00 +21°C° 0.2 mm 5 mps 746 mmHg 77%
    20:00 +20°C° 0.2 mm 5 mps 746 mmHg 82%
    21:00 +19°C° 0.2 mm 5 mps 746 mmHg 87%
    22:00 +17°C° 0 mm 5 mps 745 mmHg 89%
    23:00 +17°C° 0 mm 5 mps 745 mmHg 91%

    31 May, Thursday

    Time Temperature Precipitation Wind Pressure Humidity
    00:00 +16°C° 0 mm 5 mps 744 mmHg 93%
    01:00 +16°C° 0 mm 5 mps 744 mmHg 94%
    02:00 +15°C° 0 mm 4 mps 744 mmHg 95%
    03:00 +15°C° 0 mm 4 mps 743 mmHg 96%
    04:00 +15°C° 0 mm 4 mps 743 mmHg 95%
    05:00 +17°C° 0 mm 4 mps 743 mmHg 94%
    06:00 +17°C° 0 mm 4 mps 743 mmHg 93%
    07:00 +18°C° 0.6 mm 4 mps 743 mmHg 89%
    08:00 +19°C° 0.6 mm 4 mps 743 mmHg 85%
    09:00 +20°C° 0.6 mm 4 mps 743 mmHg 81%
    10:00 +20°C° 0.8 mm 5 mps 743 mmHg 78%
    11:00 +20°C° 0.8 mm 5 mps 743 mmHg 75%
    12:00 +20°C° 0.8 mm 5 mps 743 mmHg 72%
    13:00 +20°C° 0.1 mm 5 mps 744 mmHg 69%
    14:00 +20°C° 0.1 mm 5 mps 744 mmHg 66%
    15:00 +19°C° 0.1 mm 5 mps 744 mmHg 62%
    16:00 +19°C° 0 mm 5 mps 744 mmHg 64%
    17:00 +18°C° 0 mm 4 mps 744 mmHg 65%
    18:00 +18°C° 0 mm 4 mps 745 mmHg 67%
    19:00 +17°C° 0 mm 4 mps 745 mmHg 68%
    20:00 +14°C° 0 mm 4 mps 746 mmHg 68%
    21:00 +13°C° 0 mm 4 mps 746 mmHg 69%
    22:00 +12°C° 0 mm 4 mps 747 mmHg 69%
    23:00 +11°C° 0 mm 4 mps 747 mmHg 68%

    1 June, Friday

    Time Temperature Precipitation Wind Pressure Humidity
    00:00 +10°C° 0 mm 5 mps 747 mmHg 67%
    01:00 +10°C° 0 mm 4 mps 748 mmHg 68%
    02:00 +8°C° 0 mm 4 mps 748 mmHg 68%
    03:00 +8°C° 0 mm 4 mps 748 mmHg 69%
    04:00 +8°C° 0 mm 4 mps 748 mmHg 69%
    05:00 +8°C° 0 mm 4 mps 748 mmHg 70%
    06:00 +8°C° 0 mm 5 mps 749 mmHg 71%
    07:00 +9°C° 0 mm 5 mps 749 mmHg 66%
    08:00 +10°C° 0 mm 5 mps 749 mmHg 62%
    09:00 +12°C° 0 mm 5 mps 750 mmHg 58%
    10:00 +12°C° 0 mm 5 mps 750 mmHg 57%
    11:00 +13°C° 0 mm 5 mps 750 mmHg 55%
    12:00 +14°C° 0 mm 5 mps 750 mmHg 54%
    13:00 +14°C° 0 mm 5 mps 750 mmHg 54%
    14:00 +14°C° 0 mm 5 mps 750 mmHg 53%
    15:00 +14°C° 0 mm 5 mps 750 mmHg 53%
    16:00 +14°C° 0 mm 5 mps 750 mmHg 55%
    17:00 +14°C° 0 mm 5 mps 750 mmHg 58%
    18:00 +14°C° 0 mm 4 mps 750 mmHg 60%
    19:00 +12°C° 0 mm 4 mps 750 mmHg 62%
    20:00 +11°C° 0 mm 4 mps 751 mmHg 64%
    21:00 +10°C° 0 mm 3 mps 751 mmHg 67%
    22:00 +10°C° 0 mm 4 mps 751 mmHg 67%
    23:00 +8°C° 0 mm 4 mps 751 mmHg 67%

    2 June, Saturday

    Time Temperature Precipitation Wind Pressure Humidity
    00:00 +8°C° 0 mm 4 mps 752 mmHg 67%
    01:00 +7°C° 0 mm 4 mps 752 mmHg 69%
    02:00 +6°C° 0 mm 4 mps 752 mmHg 70%
    03:00 +6°C° 0 mm 4 mps 752 mmHg 72%
    04:00 +6°C° 0 mm 5 mps 752 mmHg 72%
    05:00 +6°C° 0 mm 5 mps 753 mmHg 72%
    06:00 +6°C° 0 mm 5 mps 753 mmHg 71%
    07:00 +8°C° 0 mm 5 mps 753 mmHg 67%
    08:00 +10°C° 0 mm 5 mps 754 mmHg 62%
    09:00 +11°C° 0 mm 6 mps 754 mmHg 57%
    10:00 +13°C° 0 mm 6 mps 754 mmHg 56%
    11:00 +14°C° 0 mm 6 mps 754 mmHg 54%
    12:00 +15°C° 0 mm 6 mps 754 mmHg 52%
    13:00 +15°C° 0 mm 6 mps 753 mmHg 52%
    14:00 +16°C° 0 mm 6 mps 753 mmHg 51%
    15:00 +16°C° 0 mm 5 mps 753 mmHg 51%
    16:00 +16°C° 0 mm 5 mps 753 mmHg 54%
    17:00 +15°C° 0 mm 4 mps 753 mmHg 57%
    18:00 +15°C° 0 mm 4 mps 752 mmHg 60%
    19:00 +13°C° 0 mm 3 mps 753 mmHg 64%
    20:00 +11°C° 0 mm 3 mps 753 mmHg 69%
    21:00 +10°C° 0 mm 2 mps 753 mmHg 74%
    22:00 +9°C° 0 mm 2 mps 753 mmHg 75%
    23:00 +8°C° 0 mm 2 mps 753 mmHg 77%
    Show more